• In Czech Republic
  • List of Countries
  • For 7 days
  • Water Temperature
  • Satellite Maps
  • Weather Map
  • Weather Widgets
  • user-avatar
    Login

    Hourly Weather Hobart

    Today, 23 May, Tuesday

    Time Temperature Precipitation Wind Pressure Humidity
    00:00 +11°C° 0 mm 3 mps 749 mmHg 87%
    01:00 +11°C° 0 mm 4 mps 749 mmHg 85%
    02:00 +11°C° 0.1 mm 4 mps 748 mmHg 86%
    03:00 +11°C° 0.1 mm 3 mps 748 mmHg 86%
    04:00 +11°C° 0.1 mm 3 mps 747 mmHg 87%
    05:00 +11°C° 0.1 mm 4 mps 747 mmHg 87%
    06:00 +12°C° 0.1 mm 4 mps 747 mmHg 88%
    07:00 +12°C° 0.1 mm 4 mps 747 mmHg 88%
    08:00 +12°C° 0.1 mm 4 mps 747 mmHg 87%
    09:00 +13°C° 0.1 mm 4 mps 747 mmHg 85%
    10:00 +14°C° 0.1 mm 4 mps 747 mmHg 83%
    11:00 +14°C° 0.2 mm 4 mps 746 mmHg 82%
    12:00 +14°C° 0.2 mm 4 mps 746 mmHg 81%
    13:00 +15°C° 0.2 mm 4 mps 745 mmHg 80%
    14:00 +14°C° 0.3 mm 3 mps 745 mmHg 82%
    15:00 +14°C° 0.3 mm 3 mps 745 mmHg 83%
    16:00 +14°C° 0.3 mm 3 mps 745 mmHg 85%
    17:00 +13°C° 0.2 mm 3 mps 745 mmHg 88%
    18:00 +11°C° 0.2 mm 3 mps 745 mmHg 91%
    19:00 +10°C° 0.2 mm 3 mps 745 mmHg 94%
    20:00 +10°C° 0 mm 3 mps 744 mmHg 95%
    21:00 +9°C° 0 mm 3 mps 744 mmHg 95%
    22:00 +9°C° 0 mm 3 mps 744 mmHg 95%
    23:00 +9°C° 0 mm 3 mps 744 mmHg 95%

    Tomorrow, 24 May, Wednesday

    Time Temperature Precipitation Wind Pressure Humidity
    00:00 +8°C° 0 mm 3 mps 744 mmHg 95%
    01:00 +8°C° 0 mm 3 mps 743 mmHg 95%
    02:00 +8°C° 0 mm 3 mps 743 mmHg 95%
    03:00 +8°C° 0 mm 3 mps 742 mmHg 94%
    04:00 +8°C° 0 mm 3 mps 742 mmHg 94%
    05:00 +8°C° 0.2 mm 3 mps 742 mmHg 94%
    06:00 +9°C° 0.2 mm 3 mps 742 mmHg 94%
    07:00 +9°C° 0.2 mm 3 mps 742 mmHg 95%
    08:00 +8°C° 0.1 mm 4 mps 742 mmHg 93%
    09:00 +10°C° 0.1 mm 4 mps 742 mmHg 91%
    10:00 +9°C° 0.1 mm 5 mps 743 mmHg 89%
    11:00 +10°C° 0 mm 5 mps 743 mmHg 82%
    12:00 +10°C° 0 mm 6 mps 743 mmHg 75%
    13:00 +11°C° 0 mm 7 mps 743 mmHg 68%
    14:00 +10°C° 0 mm 7 mps 744 mmHg 70%
    15:00 +10°C° 0 mm 6 mps 744 mmHg 71%
    16:00 +9°C° 0 mm 5 mps 744 mmHg 73%
    17:00 +9°C° 0 mm 5 mps 745 mmHg 77%
    18:00 +8°C° 0 mm 5 mps 746 mmHg 81%
    19:00 +8°C° 0 mm 5 mps 747 mmHg 85%
    20:00 +7°C° 0 mm 4 mps 747 mmHg 87%
    21:00 +7°C° 0 mm 4 mps 747 mmHg 89%
    22:00 +7°C° 0 mm 4 mps 748 mmHg 91%
    23:00 +7°C° 0 mm 4 mps 748 mmHg 92%

    Day after tomorrow, 25 May, Thursday

    Time Temperature Precipitation Wind Pressure Humidity
    00:00 +6°C° 0 mm 4 mps 748 mmHg 93%
    01:00 +7°C° 0 mm 3 mps 748 mmHg 93%
    02:00 +7°C° 0 mm 3 mps 747 mmHg 94%
    03:00 +7°C° 0 mm 3 mps 747 mmHg 95%
    04:00 +7°C° 0 mm 3 mps 747 mmHg 96%
    05:00 +7°C° 0 mm 3 mps 748 mmHg 95%
    06:00 +8°C° 0 mm 3 mps 748 mmHg 94%
    07:00 +8°C° 0 mm 3 mps 748 mmHg 94%
    08:00 +9°C° 0 mm 3 mps 748 mmHg 88%
    09:00 +10°C° 0 mm 4 mps 748 mmHg 83%
    10:00 +12°C° 0 mm 4 mps 748 mmHg 77%
    11:00 +13°C° 0 mm 4 mps 747 mmHg 73%
    12:00 +13°C° 0 mm 5 mps 746 mmHg 69%
    13:00 +14°C° 0 mm 5 mps 746 mmHg 65%
    14:00 +14°C° 0 mm 5 mps 745 mmHg 68%
    15:00 +13°C° 0 mm 5 mps 744 mmHg 71%
    16:00 +13°C° 0 mm 5 mps 744 mmHg 74%
    17:00 +13°C° 0 mm 5 mps 744 mmHg 76%
    18:00 +11°C° 0 mm 6 mps 744 mmHg 79%
    19:00 +11°C° 0 mm 6 mps 744 mmHg 82%
    20:00 +10°C° 0 mm 6 mps 744 mmHg 84%
    21:00 +9°C° 0 mm 5 mps 745 mmHg 86%
    22:00 +8°C° 0 mm 5 mps 745 mmHg 88%
    23:00 +8°C° 0 mm 5 mps 745 mmHg 86%

    26 May, Friday

    Time Temperature Precipitation Wind Pressure Humidity
    00:00 +8°C° 0 mm 5 mps 745 mmHg 84%
    01:00 +8°C° 0 mm 5 mps 745 mmHg 81%
    02:00 +8°C° 0 mm 5 mps 746 mmHg 81%
    03:00 +8°C° 0 mm 6 mps 746 mmHg 80%
    04:00 +7°C° 0 mm 6 mps 746 mmHg 80%
    05:00 +7°C° 0 mm 6 mps 747 mmHg 79%
    06:00 +7°C° 0 mm 6 mps 747 mmHg 79%
    07:00 +7°C° 0 mm 5 mps 748 mmHg 79%
    08:00 +8°C° 0 mm 6 mps 748 mmHg 76%
    09:00 +8°C° 0 mm 6 mps 749 mmHg 73%
    10:00 +9°C° 0 mm 7 mps 749 mmHg 70%
    11:00 +9°C° 0 mm 6 mps 749 mmHg 70%
    12:00 +9°C° 0 mm 6 mps 749 mmHg 69%
    13:00 +10°C° 0 mm 6 mps 749 mmHg 69%
    14:00 +9°C° 0 mm 6 mps 749 mmHg 70%
    15:00 +9°C° 0 mm 5 mps 749 mmHg 72%
    16:00 +9°C° 0 mm 5 mps 749 mmHg 73%
    17:00 +8°C° 0 mm 4 mps 749 mmHg 79%
    18:00 +7°C° 0 mm 4 mps 750 mmHg 84%
    19:00 +7°C° 0 mm 3 mps 750 mmHg 89%
    20:00 +7°C° 0 mm 3 mps 750 mmHg 90%
    21:00 +5°C° 0 mm 3 mps 750 mmHg 90%
    22:00 +5°C° 0 mm 3 mps 750 mmHg 90%
    23:00 +5°C° 0 mm 3 mps 750 mmHg 91%

    27 May, Saturday

    Time Temperature Precipitation Wind Pressure Humidity
    00:00 +5°C° 0 mm 3 mps 750 mmHg 92%
    01:00 +4°C° 0 mm 3 mps 750 mmHg 92%
    02:00 +4°C° 0 mm 3 mps 749 mmHg 93%
    03:00 +4°C° 0 mm 3 mps 749 mmHg 93%
    04:00 +3°C° 0 mm 3 mps 749 mmHg 94%
    05:00 +4°C° 0 mm 3 mps 748 mmHg 94%
    06:00 +4°C° 0 mm 3 mps 748 mmHg 94%
    07:00 +4°C° 0 mm 3 mps 748 mmHg 93%
    08:00 +6°C° 0 mm 4 mps 748 mmHg 88%
    09:00 +8°C° 0 mm 4 mps 747 mmHg 82%
    10:00 +11°C° 0 mm 4 mps 747 mmHg 77%
    11:00 +13°C° 0 mm 5 mps 746 mmHg 71%
    12:00 +14°C° 0 mm 5 mps 745 mmHg 65%
    13:00 +16°C° 0 mm 6 mps 745 mmHg 59%
    14:00 +15°C° 0 mm 6 mps 744 mmHg 62%
    15:00 +14°C° 0 mm 6 mps 743 mmHg 66%
    16:00 +14°C° 0 mm 6 mps 743 mmHg 70%
    17:00 +13°C° 0 mm 6 mps 742 mmHg 73%
    18:00 +13°C° 0 mm 6 mps 742 mmHg 75%
    19:00 +11°C° 0 mm 7 mps 741 mmHg 78%
    20:00 +11°C° 0 mm 7 mps 741 mmHg 79%
    21:00 +11°C° 0 mm 7 mps 740 mmHg 80%
    22:00 +11°C° 0 mm 8 mps 740 mmHg 80%
    23:00 +11°C° 0.2 mm 7 mps 739 mmHg 82%

    28 May, Sunday

    Time Temperature Precipitation Wind Pressure Humidity
    00:00 +11°C° 0.2 mm 7 mps 738 mmHg 83%
    01:00 +11°C° 0.2 mm 7 mps 738 mmHg 84%
    02:00 +10°C° 0.4 mm 6 mps 737 mmHg 86%
    03:00 +10°C° 0.4 mm 6 mps 737 mmHg 88%
    04:00 +9°C° 0.4 mm 6 mps 737 mmHg 90%
    05:00 +8°C° 0.1 mm 6 mps 736 mmHg 89%
    06:00 +8°C° 0.1 mm 7 mps 736 mmHg 88%
    07:00 +6°C° 0.1 mm 8 mps 736 mmHg 87%
    08:00 +7°C° 0 mm 9 mps 736 mmHg 82%
    09:00 +7°C° 0 mm 10 mps 736 mmHg 76%
    10:00 +8°C° 0 mm 11 mps 736 mmHg 71%
    11:00 +9°C° 0.1 mm 11 mps 735 mmHg 68%
    12:00 +9°C° 0.1 mm 11 mps 735 mmHg 65%
    13:00 +11°C° 0.1 mm 11 mps 734 mmHg 62%
    14:00 +9°C° 0.3 mm 10 mps 734 mmHg 69%
    15:00 +8°C° 0.3 mm 10 mps 734 mmHg 76%
    16:00 +7°C° 0.3 mm 9 mps 734 mmHg 83%
    17:00 +6°C° 0.1 mm 9 mps 735 mmHg 83%
    18:00 +5°C° 0.1 mm 9 mps 735 mmHg 83%
    19:00 +5°C° 0.1 mm 9 mps 735 mmHg 83%
    20:00 +5°C° 0 mm 10 mps 736 mmHg 82%
    21:00 +5°C° 0 mm 10 mps 736 mmHg 81%
    22:00 +5°C° 0 mm 10 mps 736 mmHg 80%
    23:00 +5°C° 0 mm 10 mps 736 mmHg 78%
    Show more